#timestamp,LO_Frequency,Hit,StdDev 
1514710815.5,286047003.6,P
1514710835.3,286047004.0,P
1514710855.1,286047004.2,P
1514710875.9,286047005.1,Y
1514710895.7,286047001.6,P
1514710915.5,286046998.2,N
1514710935.4,286046999.0,N
1514710955.2,286046993.6,N
1514710975.0,286046991.2,N
1514710975.9,286046991.2,N
1514710995.8,286046992.5,N
1514711015.6,286046994.1,N
1514711035.4,286046997.4,N
1514711055.3,286046996.4,N
1514711075.1,286046994.2,N
1514711076.0,286046994.2,N
1514711095.8,286046990.3,N
1514711115.7,286046988.8,N
1514711135.5,286046989.2,N
1514711155.3,286046991.4,N
1514711175.1,286046991.5,N
1514711195.9,286046987.2,Y
1514711215.7,286046999.5,P
1514711235.5,286047001.5,N
1514711255.4,286047008.7,N
1514711275.2,286047008.6,N
1514711295.0,286047010.3,N
1514711295.9,286047010.3,N
1514711315.8,286047006.0,N
1514711335.6,286047003.7,N
1514711355.4,286047003.7,N
1514711375.3,286047006.1,N
1514711395.1,286047008.9,N
1514711396.0,286047008.9,N
1514711415.8,286047009.4,N
1514711435.7,286047012.9,N
1514711455.5,286047017.0,Y
1514711475.3,286047013.4,P
1514711495.2,286047015.0,P
1514711515.9,286047016.5,P
1514711535.7,286047016.2,Y
1514711555.6,286047001.5,P
1514711575.4,286047005.6,N
1514711595.2,286047007.4,N
1514711615.1,286047010.8,N
1514711616.0,286047010.8,N
1514711635.8,286047008.3,N
1514711655.6,286047006.8,N
1514711675.5,286047008.4,N
1514711695.3,286047003.1,N
1514711715.1,286047000.7,N
1514711735.8,286046999.2,N
1514711755.7,286046998.9,N
1514711775.5,286046998.2,N
1514711795.3,286047001.9,N
1514711815.2,286047001.5,N
1514711835.9,286046996.5,N
1514711855.7,286046998.6,N
1514711875.6,286046999.9,N
1514711895.4,286047004.0,N
1514711915.2,286047004.1,N
1514711935.1,286047000.8,N
1514711936.0,286047000.8,N
1514711955.8,286046999.9,N
1514711975.6,286046998.1,N
1514711995.5,286046999.5,N
1514712015.3,286047000.8,N
1514712035.1,286046999.3,N
1514712055.9,286046998.2,N
1514712075.7,286047004.4,N
1514712095.5,286047005.4,N
1514712115.3,286047000.4,N
1514712135.2,286047001.3,N
1514712155.0,286047002.9,N
1514712155.9,286047002.9,N
1514712175.7,286047000.3,N
1514712195.6,286047004.4,N
1514712215.4,286047007.3,N
1514712235.2,286047009.2,Y
1514712255.1,286047004.8,P
1514712256.0,286047004.8,N
1514712275.8,286046999.9,N
1514712295.6,286047001.6,N
1514712315.5,286047001.8,N
1514712335.3,286046999.3,N
1514712355.1,286046997.2,N
1514712375.9,286047000.3,N
1514712395.7,286047000.6,N
1514712415.5,286047004.1,N
1514712435.4,286047004.7,N
1514712455.2,286047006.3,N
1514712475.0,286047003.5,N
1514712475.9,286047003.5,N
1514712495.8,286047001.3,N
1514712515.6,286047001.2,N
1514712535.4,286047002.4,N
1514712555.2,286047002.1,N
1514712575.1,286047005.0,N
1514712576.0,286047005.0,N
1514712595.8,286047001.4,N
1514712615.6,286046998.9,N
1514712635.5,286046996.0,N
1514712655.3,286046995.6,N
1514712675.1,286046991.8,N
1514712695.9,286046993.2,N
1514712715.7,286046991.2,N
1514712735.5,286046992.3,N
1514712755.4,286046988.0,N
1514712775.2,286046985.4,Y
1514712795.0,286046988.8,P
1514712795.9,286046988.8,N
1514712815.8,286046990.2,N
1514712835.6,286046993.3,N
1514712855.4,286046993.4,N
1514712875.3,286046992.7,N
1514712895.1,286046988.6,Y
1514712896.0,286046988.6,P
1514712915.8,286046999.4,N
1514712935.7,286046996.6,N
1514712955.5,286047002.8,N
1514712975.3,286047005.9,N
1514712995.2,286047002.9,N
1514713015.9,286047006.8,N
1514713035.7,286047005.2,N
1514713055.5,286047001.5,N
1514713075.4,286047000.2,N
1514713095.2,286047000.6,N
1514713115.0,286047005.5,N
1514713115.9,286047005.5,N
1514713135.8,286047003.0,N
1514713155.6,286047001.2,N
1514713175.4,286046998.3,N
1514713195.3,286046996.8,N
1514713215.1,286046994.2,N
1514713216.0,286046994.2,N
1514713235.8,286046994.7,N
1514713255.7,286046992.8,N
1514713275.5,286046991.0,N
1514713295.3,286046987.0,N
1514713315.2,286046987.9,N
1514713335.9,286046991.1,N
1514713355.7,286046990.3,N
1514713375.5,286046989.1,N
1514713395.4,286046987.3,N
1514713415.2,286046985.5,N
1514713435.0,286046985.3,N
1514713435.9,286046985.3,N
1514713455.8,286046986.5,N
1514713475.6,286046990.7,N
1514713495.4,286046991.3,N
1514713515.3,286046988.8,N
1514713535.1,286046991.2,N
1514713555.8,286046989.2,N
1514713575.7,286046989.5,N
1514713595.5,286046985.3,N
1514713615.3,286046987.3,N
1514713635.2,286046991.6,N
1514713655.9,286046991.1,N
1514713675.7,286046991.5,N
1514713695.6,286046992.1,N
1514713715.4,286046992.1,N
1514713735.2,286046996.0,N
1514713755.0,286046996.4,N
1514713756.0,286046996.4,N
1514713775.8,286046994.1,N
1514713795.6,286046992.3,N
1514713815.4,286046990.8,N
1514713835.3,286046990.4,Y
1514713855.1,286047005.5,P
1514713875.8,286047010.7,N
1514713895.7,286047012.1,N
1514713915.5,286047011.8,N
1514713935.3,286047014.0,N
1514713955.2,286047011.3,N
1514713975.9,286047011.8,N
1514713995.7,286047010.0,N
1514714015.6,286047012.0,N
1514714035.4,286047012.3,N
1514714055.2,286047009.7,N
1514714075.1,286047008.4,N
1514714076.0,286047008.4,N
1514714095.8,286047008.5,N
1514714115.6,286047012.2,N
1514714135.5,286047013.5,N
1514714155.3,286047012.0,N
1514714175.1,286047008.2,N
1514714195.8,286047010.0,N
1514714215.7,286047007.4,N
1514714235.5,286047004.7,N
1514714255.3,286047004.6,N
1514714275.2,286047007.4,N
1514714295.9,286047004.9,N
1514714315.7,286047003.7,N
1514714335.6,286046999.3,N
1514714355.4,286046993.6,N
1514714375.2,286046990.7,N
1514714395.0,286046993.6,N
1514714396.0,286046993.6,N
